Terminal Aerodrome Forecast
Issued by NWS

Home | Current Version | Previous Version | Text Only | Print | Product List | Glossary On
Versions: 1 2 3 4 5 6 7 8 9 10 11 12 13 14 15 16 17 18 19 20 21 22 23 24 25 26 27 28 29 30 31 32 33 34 35 36 37 38 39 40 41 42 43 44 45 46 47 48 49 50
000
FTUS44 KHGX 012049 AAC
TAFCXO
TAF AMD
KCXO 012049Z 0121/0218 36007KT P6SM VCTS FEW027 SCT035CB BKN080
     FM020200 35004KT P6SM BKN030
     FM020600 35008KT P6SM VCSH BKN025
     FM021000 34010G17KT 5SM BR VCTS SCT009 BKN025CB
     FM021500 35009KT P6SM SCT020 BKN050=

USA.gov is the U.S. government's official web portal to all federal, state and local government web resources and services.